Location: Isle of Man Observatory
(54.1776°N, 4.6264°W)
Time: 13:23:31
(UTC+01:00)

Amateur Radio Satellites - All Passes

Search period start: 23 March 2017 12:53
Search period end: 24 March 2017 12:53
Location: Isle of Man Observatory, 54.1776°N, 4.6264°W

Satellite Date Start Highest point End Downlink Frequencies (MHz)
Time Altitude Azimuth
50 SAT 23 Mar 12:59:05 13:01:17 16° 90° (E) 13:03:28 437.505
YUBILEINY 23 Mar 13:00:23 13:04:09 13° 331° (NNW) 13:07:55 435.215
NANOSAT C BR1 23 Mar 13:04:04 13:07:43 27° 266° (W) 13:11:23 145.865
NO-84 23 Mar 13:04:55 13:07:55 80° 9° (N) 13:11:08 435.350 FM
EO-79 23 Mar 13:06:17 13:09:48 24° 267° (W) 13:13:20 145.935-145.965
RS-15 23 Mar 13:06:56 13:16:57 32° 104° (ESE) 13:27:08 29.354- 29.394
LO-87 23 Mar 13:15:10 13:18:37 39° 292° (WNW) 13:22:03 145.935 - 145.965
UKube-1 23 Mar 13:25:02 13:27:50 17° 89° (E) 13:30:38 .
POLYITAN 1 23 Mar 13:34:37 13:37:03 15° 273° (W) 13:39:29 437.675
AO-7 23 Mar 13:35:48 13:42:49 32° 43° (NE) 13:49:49 .
Gurwin Techsat 1B 23 Mar 13:38:46 13:43:59 58° 67° (ENE) 13:49:14 435.225
QB50P2 23 Mar 13:39:42 13:41:36 13° 275° (W) 13:43:30 145.880/145.840
PCSat 23 Mar 13:54:45 13:59:41 34° 331° (NNW) 14:04:39 145.827
Oscar 19 23 Mar 13:55:49 14:00:55 71° 256° (WSW) 14:06:04 437.125/150
ITAMSAT 1 23 Mar 13:56:25 14:00:25 23° 53° (NE) 14:04:26 435.822/435.867
DUCHIFAT 1 23 Mar 13:59:06 13:59:59 11° 276° (W) 14:00:51 145.980
SPROUT 23 Mar 13:59:45 14:04:05 83° 103° (ESE) 14:08:23 437.525
DX 1 23 Mar 14:12:00 14:16:20 55° 101° (ESE) 14:20:39 434.975-435.025
VELOX 1 23 Mar 14:22:10 14:26:35 60° 291° (WNW) 14:30:58 145.980
BUGSAT 1 23 Mar 14:29:45 14:31:45 13° 274° (W) 14:33:46 437.445
ESTCUBE 1 23 Mar 14:29:52 14:33:24 23° 302° (WNW) 14:36:58 437.505/2401.250
50 SAT 23 Mar 14:31:13 14:34:40 55° 289° (WNW) 14:38:06 437.505
NO-84 23 Mar 14:42:24 14:45:23 41° 207° (SSW) 14:48:34 435.350 FM
UKube-1 23 Mar 15:00:03 15:04:24 75° 287° (WNW) 15:08:43 .
BEESAT 23 Mar 15:13:31 15:16:54 19° 89° (E) 15:20:15 436.000
RS-15 23 Mar 15:15:41 15:27:51 83° 130° (SE) 15:40:17 29.354- 29.394
Gurwin Techsat 1B 23 Mar 15:19:44 15:24:18 28° 268° (W) 15:28:53 435.225
AO-7 23 Mar 15:26:23 15:34:44 86° 66° (ENE) 15:43:06 .
ITUPSAT 1 23 Mar 15:26:49 15:30:41 24° 92° (E) 15:34:30 437.325
SO-50 23 Mar 15:28:17 15:28:36 10° 109° (ESE) 15:28:55 436.795
ITAMSAT 1 23 Mar 15:34:07 15:39:22 82° 254° (WSW) 15:44:39 435.822/435.867
SPROUT 23 Mar 15:36:38 15:39:29 17° 305° (NW) 15:42:19 437.525
Oscar 19 23 Mar 15:38:55 15:41:14 13° 277° (W) 15:43:33 437.125/150
PCSat 23 Mar 15:40:30 15:44:38 21° 356° (N) 15:48:45 145.827
DX 1 23 Mar 15:48:41 15:52:16 25° 301° (WNW) 15:55:49 434.975-435.025
HO-68 23 Mar 15:56:10 15:56:47 10° 19° (NNE) 15:57:25 435.675
VELOX 1 23 Mar 16:00:22 16:02:12 12° 311° (NW) 16:04:02 145.980
MOZHAYETS 4 23 Mar 16:03:59 16:07:42 24° 92° (E) 16:11:24
NO-84 23 Mar 16:21:40 16:22:21 10° 225° (SW) 16:23:03 435.350 FM
UKube-1 23 Mar 16:37:25 16:39:44 14° 308° (NW) 16:42:03 .
DOVE 4 23 Mar 16:37:36 16:40:44 18° 52° (NE) 16:44:00 437.250
LilacSat-2 23 Mar 16:44:02 16:45:15 11° 53° (NE) 16:46:28 437.200
CUBESAT XI-V 23 Mar 16:46:52 16:49:11 14° 85° (E) 16:51:30 437.345
XW-2F 23 Mar 16:49:20 16:50:42 12° 54° (NE) 16:52:02 145.980 - 146.000
BEESAT 23 Mar 16:50:26 16:55:14 75° 288° (WNW) 16:59:59 436.000
CUTE-I 23 Mar 16:58:01 17:02:09 23° 53° (NE) 17:06:17 437.470
STARS 23 Mar 17:01:51 17:02:43 10° 84° (E) 17:03:37 437.465
YUBILEINY 23 Mar 17:02:49 17:08:29 18° 41° (NE) 17:14:08 435.215
SO-50 23 Mar 17:03:37 17:08:07 53° 128° (SE) 17:12:35 436.795
ITUPSAT 1 23 Mar 17:04:11 17:08:54 60° 291° (WNW) 17:13:35 437.325
XW-2D 23 Mar 17:11:18 17:13:58 18° 59° (ENE) 17:16:38 145.860 - 145.880
ITAMSAT 1 23 Mar 17:16:32 17:19:40 16° 274° (W) 17:22:49 435.822/435.867
XW-2B 23 Mar 17:16:57 17:19:46 20° 60° (ENE) 17:22:35 145.730 - 145.750
AO-7 23 Mar 17:21:33 17:28:31 29° 269° (W) 17:35:31 .
NUDT-PHONESAT 23 Mar 17:24:16 17:27:00 19° 60° (ENE) 17:29:44 437.300
PCSat 23 Mar 17:25:06 17:29:45 27° 22° (NNE) 17:34:22 145.827
XW-2C 23 Mar 17:26:36 17:29:42 24° 62° (ENE) 17:32:49 145.795 - 145.815
KAITUO 1B 23 Mar 17:26:40 17:29:29 20° 61° (ENE) 17:32:18 145.475/437.950
RS-15 23 Mar 17:29:23 17:41:30 58° 340° (NNW) 17:53:41 29.354- 29.394
HO-68 23 Mar 17:36:40 17:42:06 24° 44° (NE) 17:47:32 435.675
MOZHAYETS 4 23 Mar 17:40:43 17:45:12 55° 291° (WNW) 17:49:38
KKS-1 23 Mar 17:48:53 17:53:18 52° 101° (E) 17:57:41 437.445
CUTE 1.7 + AOD 2 23 Mar 18:00:09 18:01:40 12° 51° (NE) 18:03:10 437.475
DOVE 4 23 Mar 18:12:58 18:17:40 82° 72° (ENE) 18:22:43 437.250
O/OREOS (USA 219) 23 Mar 18:13:04 18:17:08 33° 108° (ESE) 18:21:15 437.305
LilacSat-2 23 Mar 18:15:02 18:18:51 71° 73° (ENE) 18:22:41 437.200
XW-2F 23 Mar 18:20:24 18:24:11 75° 73° (ENE) 18:27:59 145.980 - 146.000
CUBESAT XI-V 23 Mar 18:22:40 18:27:20 82° 105° (ESE) 18:31:59 437.345
BEESAT 23 Mar 18:29:26 18:32:17 16° 309° (NW) 18:35:08 436.000
XW-2A 23 Mar 18:34:26 18:37:03 20° 62° (ENE) 18:39:40 145.665 - 145.685
STARS 23 Mar 18:35:30 18:39:57 68° 103° (ESE) 18:44:22 437.465
CUTE-I 23 Mar 18:36:15 18:41:39 83° 254° (WSW) 18:47:05 437.470
M-CUBED/EXP-1 PRIME 23 Mar 18:36:42 18:39:03 14° 93° (E) 18:41:25 437.505
CUBEBUG 2 23 Mar 18:38:39 18:41:33 16° 53° (NE) 18:44:25 437.445
ITUPSAT 1 23 Mar 18:43:34 18:45:50 13° 312° (NW) 18:48:06 437.325
XW-2D 23 Mar 18:44:03 18:47:49 60° 259° (WSW) 18:51:36 145.860 - 145.880
SO-50 23 Mar 18:44:22 18:48:45 41° 329° (NNW) 18:53:06 436.795
XW-2B 23 Mar 18:49:56 18:53:40 54° 259° (W) 18:57:26 145.730 - 145.750
NUDT-PHONESAT 23 Mar 18:56:57 19:00:38 54° 260° (W) 19:04:20 437.300
YUBILEINY 23 Mar 18:59:16 19:07:48 54° 68° (ENE) 19:16:16 435.215
KAITUO 1B 23 Mar 18:59:35 19:03:15 50° 260° (W) 19:06:55 145.475/437.950
XW-2C 23 Mar 19:00:06 19:03:45 42° 262° (W) 19:07:24 145.795 - 145.815
ZACube-1 23 Mar 19:03:39 19:05:08 11° 50° (NE) 19:06:37 437.345
PCSat 23 Mar 19:08:36 19:14:03 70° 45° (NE) 19:19:29 145.827
MOZHAYETS 4 23 Mar 19:19:52 19:21:26 12° 312° (NW) 19:22:59
HO-68 23 Mar 19:21:43 19:28:51 74° 67° (ENE) 19:36:00 435.675
STRAND 1 23 Mar 19:24:31 19:27:18 15° 85° (E) 19:30:05 437.568
KKS-1 23 Mar 19:25:52 19:29:38 27° 301° (WNW) 19:33:24 437.445
AAUSAT CUBESAT 2 23 Mar 19:28:58 19:32:18 24° 61° (ENE) 19:35:40 437.432
AO-73 23 Mar 19:32:30 19:35:25 17° 55° (NE) 19:38:20 145.935
CUTE 1.7 + AOD 2 23 Mar 19:32:33 19:36:43 63° 71° (ENE) 19:40:54 437.475
SEEDS 23 Mar 19:32:52 19:36:50 45° 68° (ENE) 19:40:50 437.485
RS-15 23 Mar 19:44:30 19:56:39 54° 13° (NNE) 20:08:33 29.354- 29.394
UWE-3 23 Mar 19:47:23 19:51:36 34° 64° (ENE) 19:55:45 435.000/436.395/437.385
LilacSat-2 23 Mar 19:51:26 19:53:36 14° 272° (W) 19:55:46 437.200
O/OREOS (USA 219) 23 Mar 19:52:07 19:56:28 44° 310° (NW) 20:00:53 437.305
DOVE 4 23 Mar 19:52:54 19:56:04 18° 275° (W) 19:59:23 437.250
XW-2F 23 Mar 19:56:52 19:58:50 14° 272° (W) 20:00:48 145.980 - 146.000
CUBESAT XI-V 23 Mar 20:00:56 20:04:12 19° 305° (NW) 20:07:27 437.345
XW-2A 23 Mar 20:06:17 20:09:36 42° 261° (W) 20:12:56 145.665 - 145.685
M-CUBED/EXP-1 PRIME 23 Mar 20:09:35 20:14:07 78° 111° (ESE) 20:18:48 437.505
STARS 23 Mar 20:12:32 20:15:54 21° 303° (WNW) 20:19:15 437.465
CUBEBUG 2 23 Mar 20:12:42 20:17:28 78° 73° (ENE) 20:22:13 437.445
CUTE-I 23 Mar 20:19:11 20:22:32 17° 274° (W) 20:25:55 437.470
SO-50 23 Mar 20:26:35 20:30:16 23° 353° (N) 20:33:53 436.795
Oscar 11 23 Mar 20:35:41 20:39:48 44° 67° (ENE) 20:43:55 .
ZACube-1 23 Mar 20:36:05 20:40:32 55° 70° (ENE) 20:44:57 437.345
PCSat 23 Mar 20:52:27 20:57:06 29° 247° (WSW) 21:01:42 145.827
YUBILEINY 23 Mar 20:56:24 21:04:35 48° 273° (W) 21:12:46 435.215
STRAND 1 23 Mar 21:02:12 21:07:22 78° 104° (ESE) 21:12:29 437.568
AAUSAT CUBESAT 2 23 Mar 21:03:35 21:07:34 48° 261° (W) 21:11:34 437.432
AO-73 23 Mar 21:06:33 21:11:06 89° 240° (WSW) 21:15:37 145.935
SEEDS 23 Mar 21:09:17 21:12:44 25° 268° (W) 21:16:14 437.485
CUTE 1.7 + AOD 2 23 Mar 21:09:59 21:12:58 19° 271° (W) 21:15:57 437.475
HO-68 23 Mar 21:11:04 21:17:14 31° 268° (W) 21:23:27 435.675
DELFI C3 23 Mar 21:19:51 21:23:30 39° 67° (ENE) 21:27:12 145.870
UWE-3 23 Mar 21:23:35 21:27:59 40° 263° (W) 21:32:22 435.000/436.395/437.385
O/OREOS (USA 219) 23 Mar 21:34:41 21:37:06 14° 333° (NNW) 21:39:32 437.305
M-CUBED/EXP-1 PRIME 23 Mar 21:44:42 21:48:09 22° 309° (NW) 21:51:41 437.505
CUBEBUG 2 23 Mar 21:51:20 21:54:38 18° 272° (W) 21:57:56 437.445
RS-15 23 Mar 21:58:14 22:10:43 87° 44° (NE) 22:22:46 29.354- 29.394
SO-50 23 Mar 22:08:06 22:12:00 27° 17° (NNE) 22:15:52 436.795
PRISM 23 Mar 22:11:07 22:14:21 21° 92° (E) 22:17:33 437.425
Oscar 11 23 Mar 22:12:25 22:16:06 27° 267° (W) 22:19:49 .
ZACube-1 23 Mar 22:13:27 22:17:07 24° 269° (W) 22:20:47 437.345
ESTCUBE 1 23 Mar 22:22:58 22:26:22 22° 57° (ENE) 22:29:46 437.505/2401.250
LO-87 23 Mar 22:24:29 22:27:32 27° 64° (ENE) 22:30:39 145.935 - 145.965
STRAND 1 23 Mar 22:42:06 22:46:04 23° 306° (NW) 22:50:00 437.568
ISS 23 Mar 22:44:34 22:45:20 11° 140° (SE) 22:46:05 437.550
AO-73 23 Mar 22:45:31 22:47:59 14° 274° (W) 22:50:28 145.935
AO-85 23 Mar 22:45:42 22:49:40 36° 125° (SE) 22:53:26 145.980
DELFI C3 23 Mar 22:55:08 22:58:26 26° 266° (W) 23:01:47 145.870
YUBILEINY 23 Mar 22:56:12 22:59:04 12° 297° (WNW) 23:01:56 435.215
Tancredo 1 23 Mar 22:58:54 23:00:36 14° 144° (SE) 23:02:19 437.200
FO-29 23 Mar 23:16:33 23:22:25 35° 91° (E) 23:27:38 435.910
TIGRISAT 23 Mar 23:21:58 23:26:23 50° 100° (E) 23:30:40 435.000
SPROUT 23 Mar 23:24:34 23:27:59 23° 59° (ENE) 23:31:24 437.525
UNISAT 6 23 Mar 23:31:02 23:35:33 64° 102° (ESE) 23:39:55 437.425
50 SAT 23 Mar 23:39:01 23:41:31 19° 60° (ENE) 23:44:01 437.505
DX 1 23 Mar 23:39:14 23:42:21 19° 56° (NE) 23:45:28 434.975-435.025
QB50P2 23 Mar 23:41:18 23:42:17 11° 84° (E) 23:43:17 145.880/145.840
PRISM 23 Mar 23:45:52 23:49:55 53° 291° (WNW) 23:53:59 437.425
SO-50 23 Mar 23:48:38 23:53:10 70° 41° (NE) 23:57:39 436.795
VELOX 1 23 Mar 23:49:32 23:53:41 42° 65° (ENE) 23:57:52 145.980
BEESAT 3 23 Mar 23:55:49 23:58:53 22° 118° (ESE) 00:02:00 437.485
LO-87 23 Mar 23:57:38 00:00:55 33° 263° (W) 00:04:16 145.935 - 145.965
DUCHIFAT 1 23 Mar 23:58:10 23:59:56 12° 85° (E) 00:01:41 145.980
ESTCUBE 1 23 Mar 23:58:19 00:02:46 67° 256° (WSW) 00:07:16 437.505/2401.250
BEESAT 2 24 Mar 00:05:13 00:07:04 13° 112° (ESE) 00:08:56 435.950
RS-15 24 Mar 00:11:15 00:22:09 40° 251° (WSW) 00:32:42 29.354- 29.394
ISS 24 Mar 00:18:04 00:21:05 33° 159° (SSE) 00:24:05 437.550
UKube-1 24 Mar 00:25:18 00:29:09 33° 63° (ENE) 00:33:02 .
AO-85 24 Mar 00:25:56 00:30:01 46° 324° (NW) 00:33:54 145.980
Tancredo 1 24 Mar 00:33:08 00:36:09 38° 163° (SSE) 00:39:11 437.200
NANOSAT C BR1 24 Mar 00:40:55 00:44:44 31° 95° (E) 00:48:30 145.865
AIST 2D 24 Mar 00:43:09 00:46:38 58° 101° (E) 00:50:05 435.315
EO-79 24 Mar 00:43:14 00:47:10 35° 96° (E) 00:51:04 145.935-145.965
BEESAT 24 Mar 00:52:37 00:53:41 11° 44° (NE) 00:54:44 436.000
O/OREOS (USA 219) 24 Mar 00:58:09 01:00:20 13° 25° (NNE) 01:02:30 437.305
TIGRISAT 24 Mar 00:59:03 01:02:51 27° 300° (WNW) 01:06:33 435.000
SPROUT 24 Mar 00:59:21 01:03:36 57° 259° (W) 01:07:53 437.525
FO-29 24 Mar 01:01:29 01:07:53 55° 296° (WNW) 01:13:30 435.910
ITUPSAT 1 24 Mar 01:05:17 01:07:25 13° 47° (NE) 01:09:34 437.325
UNISAT 6 24 Mar 01:08:24 01:11:53 22° 303° (WNW) 01:15:18 437.425
POLYITAN 1 24 Mar 01:10:10 01:14:26 62° 102° (ESE) 01:18:37 437.675
50 SAT 24 Mar 01:10:58 01:14:19 47° 260° (W) 01:17:41 437.505
DX 1 24 Mar 01:13:44 01:18:04 75° 254° (WSW) 01:22:28 434.975-435.025
QB50P2 24 Mar 01:14:37 01:18:54 73° 103° (ESE) 01:23:08 145.880/145.840
PRISM 24 Mar 01:23:44 01:24:21 10° 311° (NW) 01:24:58 437.425
VELOX 1 24 Mar 01:26:22 01:30:16 30° 265° (W) 01:34:12 145.980
SO-50 24 Mar 01:29:35 01:33:17 25° 241° (WSW) 01:36:57 436.795
DUCHIFAT 1 24 Mar 01:32:03 01:36:19 84° 104° (ESE) 01:40:32 145.980
BEESAT 3 24 Mar 01:32:12 01:36:09 68° 319° (NW) 01:40:10 437.485
MOZHAYETS 4 24 Mar 01:39:12 01:40:09 11° 47° (NE) 01:41:07
ESTCUBE 1 24 Mar 01:39:36 01:40:29 10° 277° (W) 01:41:21 437.505/2401.250
BEESAT 2 24 Mar 01:40:11 01:44:09 75° 133° (SE) 01:48:12 435.950
Gurwin Techsat 1B 24 Mar 01:49:32 01:52:09 14° 83° (E) 01:54:47 435.225
ISS 24 Mar 01:54:01 01:57:16 55° 178° (S) 02:00:30 437.550
Oscar 19 24 Mar 02:00:46 02:05:02 25° 92° (E) 02:09:17 437.125/150
UKube-1 24 Mar 02:01:08 02:05:09 37° 262° (W) 02:09:13 .
BUGSAT 1 24 Mar 02:01:48 02:06:02 64° 102° (ESE) 02:10:11 437.445
AO-85 24 Mar 02:08:12 02:11:16 20° 348° (NNW) 02:14:16 145.980
Tancredo 1 24 Mar 02:08:55 02:12:04 54° 183° (S) 02:15:13 437.200
NANOSAT C BR1 24 Mar 02:16:35 02:20:32 37° 295° (WNW) 02:24:25 145.865
AIST 2D 24 Mar 02:17:14 02:19:30 16° 300° (WNW) 02:21:45 435.315
EO-79 24 Mar 02:19:05 02:22:56 34° 296° (WNW) 02:26:45 145.935-145.965
BEESAT 24 Mar 02:25:50 02:30:23 45° 65° (ENE) 02:34:57 436.000
O/OREOS (USA 219) 24 Mar 02:36:43 02:41:04 39° 49° (NE) 02:45:23 437.305
ITUPSAT 1 24 Mar 02:39:39 02:44:20 57° 68° (ENE) 02:49:04 437.325
POLYITAN 1 24 Mar 02:46:37 02:49:52 21° 302° (WNW) 02:53:04 437.675
FO-29 24 Mar 02:47:37 02:51:31 17° 320° (NW) 02:55:10 435.910
QB50P2 24 Mar 02:51:15 02:54:15 19° 303° (WNW) 02:57:14 145.880/145.840
DX 1 24 Mar 02:53:39 02:55:04 11° 275° (W) 02:56:29 434.975-435.025
DUCHIFAT 1 24 Mar 03:08:44 03:11:28 17° 305° (NW) 03:14:10 145.980
BEESAT 3 24 Mar 03:11:09 03:14:24 23° 341° (NNW) 03:17:41 437.485
MOZHAYETS 4 24 Mar 03:11:53 03:16:19 49° 67° (ENE) 03:20:45
KKS-1 24 Mar 03:18:20 03:21:31 20° 55° (NE) 03:24:45 437.445
BEESAT 2 24 Mar 03:18:45 03:22:19 29° 334° (NNW) 03:25:55 435.950
AO-7 24 Mar 03:21:27 03:26:54 19° 83° (E) 03:32:19 .
Gurwin Techsat 1B 24 Mar 03:27:46 03:33:06 71° 104° (ESE) 03:38:25 435.225
ISS 24 Mar 03:30:24 03:33:29 36° 198° (SSW) 03:36:33 437.550
BUGSAT 1 24 Mar 03:37:52 03:41:01 21° 302° (WNW) 03:44:09 437.445
Oscar 19 24 Mar 03:39:40 03:44:46 62° 292° (WNW) 03:49:52 437.125/150
ITAMSAT 1 24 Mar 03:40:42 03:44:41 22° 90° (E) 03:48:38 435.822/435.867
Tancredo 1 24 Mar 03:45:03 03:47:54 29° 203° (SSW) 03:50:46 437.200
AO-85 24 Mar 03:49:56 03:52:56 20° 12° (NNE) 03:55:54 145.980
CUBESAT XI-V 24 Mar 03:55:57 03:59:51 28° 61° (ENE) 04:03:47 437.345
STARS 24 Mar 04:03:13 04:06:44 23° 58° (ENE) 04:10:15 437.465
BEESAT 24 Mar 04:04:04 04:08:20 31° 265° (W) 04:12:37 436.000
O/OREOS (USA 219) 24 Mar 04:16:12 04:20:31 40° 250° (WSW) 04:24:49 437.305
ITUPSAT 1 24 Mar 04:18:34 04:22:31 25° 268° (W) 04:26:29 437.325
MOZHAYETS 4 24 Mar 04:49:47 04:53:43 27° 267° (W) 04:57:39
BEESAT 3 24 Mar 04:50:23 04:53:14 18° 5° (N) 04:56:06 437.485
KKS-1 24 Mar 04:53:08 04:57:37 77° 257° (WSW) 05:02:08 437.445
BEESAT 2 24 Mar 04:58:21 05:01:13 18° 357° (N) 05:04:06 435.950
ISS 24 Mar 05:07:48 05:09:18 13° 218° (SW) 05:10:48 437.550
Gurwin Techsat 1B 24 Mar 05:08:19 05:12:38 26° 305° (NW) 05:16:58 435.225
STRAND 1 24 Mar 05:12:02 05:13:01 10° 42° (NE) 05:13:59 437.568
AO-7 24 Mar 05:13:02 05:21:21 68° 107° (ESE) 05:29:35 .
ITAMSAT 1 24 Mar 05:19:30 05:24:43 74° 290° (WNW) 05:29:54 435.822/435.867
Oscar 19 24 Mar 05:20:21 05:23:11 15° 312° (NW) 05:26:02 437.125/150
M-CUBED/EXP-1 PRIME 24 Mar 05:27:56 05:31:28 40° 59° (ENE) 05:35:20 437.505
AO-85 24 Mar 05:30:20 05:34:10 48° 36° (NE) 05:38:00 145.980
CUBESAT XI-V 24 Mar 05:32:36 05:37:03 49° 261° (W) 05:41:33 437.345
STARS 24 Mar 05:38:22 05:42:45 60° 258° (WSW) 05:47:11 437.465
DOVE 4 24 Mar 06:05:33 06:09:07 18° 85° (E) 06:12:40 437.250
XW-2B 24 Mar 06:17:51 06:18:49 11° 85° (E) 06:19:48 145.730 - 145.750
YUBILEINY 24 Mar 06:19:56 06:22:33 12° 62° (ENE) 06:25:11 435.215
KAITUO 1B 24 Mar 06:26:11 06:27:06 11° 85° (E) 06:28:02 145.475/437.950
XW-2C 24 Mar 06:27:03 06:29:00 14° 87° (E) 06:30:58 145.795 - 145.815
BEESAT 3 24 Mar 06:28:17 06:31:55 31° 28° (NNE) 06:35:33 437.485
KKS-1 24 Mar 06:33:08 06:34:58 12° 275° (W) 06:36:48 437.445
BEESAT 2 24 Mar 06:36:48 06:40:12 25° 21° (NNE) 06:43:36 435.950
STRAND 1 24 Mar 06:46:09 06:50:57 41° 63° (ENE) 06:55:46 437.568
CUTE-I 24 Mar 06:46:51 06:51:13 24° 91° (E) 06:55:30 437.470
ITAMSAT 1 24 Mar 07:00:02 07:03:25 18° 311° (NW) 07:06:46 435.822/435.867
M-CUBED/EXP-1 PRIME 24 Mar 07:02:52 07:06:05 27° 260° (W) 07:09:33 437.505
AO-7 24 Mar 07:06:11 07:13:48 42° 310° (NW) 07:21:24 .
AO-85 24 Mar 07:10:56 07:14:26 31° 237° (WSW) 07:17:59 145.980
LilacSat-2 24 Mar 07:15:52 07:19:29 41° 98° (E) 07:23:04 437.200
XW-2F 24 Mar 07:20:07 07:23:42 42° 98° (E) 07:27:16 145.980 - 146.000
DOVE 4 24 Mar 07:42:11 07:47:30 89° 104° (ESE) 07:52:49 437.250
XW-2D 24 Mar 07:44:00 07:47:47 80° 102° (ESE) 07:51:32 145.860 - 145.880
XW-2B 24 Mar 07:49:52 07:53:39 88° 102° (ESE) 07:57:25 145.730 - 145.750
FO-29 24 Mar 07:54:00 07:57:43 15° 37° (NE) 08:01:18 435.910
NUDT-PHONESAT 24 Mar 07:54:38 07:58:22 83° 105° (ESE) 08:02:03 437.300
KAITUO 1B 24 Mar 07:58:01 08:01:45 90° 111° (ESE) 08:05:27 145.475/437.950
CUBEBUG 2 24 Mar 07:59:19 08:00:30 11° 82° (E) 08:01:42 437.445
XW-2C 24 Mar 07:59:56 08:03:42 73° 287° (WNW) 08:07:27 145.795 - 145.815
BEESAT 3 24 Mar 08:05:49 08:09:51 66° 228° (SW) 08:13:49 437.485
YUBILEINY 24 Mar 08:08:49 08:16:59 47° 87° (E) 08:25:09 435.215
BEESAT 2 24 Mar 08:14:29 08:18:34 77° 42° (NE) 08:22:38 435.950
STRAND 1 24 Mar 08:25:21 08:30:11 39° 263° (W) 08:35:02 437.568
CUTE-I 24 Mar 08:26:24 08:31:46 69° 291° (WNW) 08:37:04 437.470
HO-68 24 Mar 08:29:37 08:36:23 42° 97° (E) 08:43:06 435.675
AAUSAT CUBESAT 2 24 Mar 08:39:27 08:42:15 18° 89° (E) 08:45:04 437.432
SEEDS 24 Mar 08:45:20 08:49:11 34° 96° (E) 08:53:01 437.485
CUTE 1.7 + AOD 2 24 Mar 08:46:17 08:50:25 50° 100° (E) 08:54:31 437.475
AO-73 24 Mar 08:49:55 08:51:19 11° 83° (E) 08:52:42 145.935
LilacSat-2 24 Mar 08:50:31 08:53:37 24° 298° (WNW) 08:56:41 437.200
TIGRISAT 24 Mar 08:51:49 08:55:05 19° 55° (NE) 08:58:18 435.000
XW-2A 24 Mar 08:54:12 08:57:38 77° 103° (ESE) 09:01:02 145.665 - 145.685
XW-2F 24 Mar 08:54:40 08:57:41 23° 298° (WNW) 09:00:40 145.980 - 146.000
AO-7 24 Mar 08:59:26 09:04:35 19° 335° (NNW) 09:09:46 .
UNISAT 6 24 Mar 09:00:34 09:04:12 23° 58° (ENE) 09:07:48 437.425
PRISM 24 Mar 09:06:23 09:10:09 37° 65° (ENE) 09:13:56 437.425
UWE-3 24 Mar 09:06:30 09:10:17 27° 92° (E) 09:13:58 435.000/436.395/437.385
XW-2D 24 Mar 09:19:22 09:21:29 15° 303° (WNW) 09:23:36 145.860 - 145.880
NO-84 24 Mar 09:19:46 09:22:07 23° 144° (SE) 09:24:30 435.350 FM
DOVE 4 24 Mar 09:20:41 09:24:35 21° 305° (NW) 09:28:30 437.250
XW-2B 24 Mar 09:25:24 09:27:18 14° 304° (NW) 09:29:11 145.730 - 145.750
NUDT-PHONESAT 24 Mar 09:29:50 09:31:46 14° 304° (WNW) 09:33:42 437.300
KAITUO 1B 24 Mar 09:33:28 09:35:12 13° 305° (NW) 09:36:58 145.475/437.950
CUBEBUG 2 24 Mar 09:33:30 09:38:04 70° 103° (ESE) 09:42:25 437.445
FO-29 24 Mar 09:34:01 09:41:07 41° 59° (ENE) 09:47:43 435.910
XW-2C 24 Mar 09:36:05 09:37:14 11° 307° (NW) 09:38:23 145.795 - 145.815
BEESAT 3 24 Mar 09:45:20 09:46:41 11° 249° (WSW) 09:48:02 437.485
Oscar 11 24 Mar 09:52:00 09:55:58 35° 96° (E) 09:59:57 .
BEESAT 2 24 Mar 09:52:57 09:55:55 20° 243° (WSW) 09:58:53 435.950
ZACube-1 24 Mar 09:53:54 09:58:04 45° 98° (E) 10:02:07 437.345
PCSat 24 Mar 09:59:55 10:02:30 14° 104° (ESE) 10:05:07 145.827
YUBILEINY 24 Mar 10:05:11 10:13:44 55° 291° (WNW) 10:22:18 435.215
NANOSAT C BR1 24 Mar 10:07:11 10:08:15 11° 49° (NE) 10:09:18 145.865
CUTE-I 24 Mar 10:07:36 10:10:57 17° 312° (NW) 10:14:17 437.470
EO-79 24 Mar 10:09:12 10:10:51 12° 50° (NE) 10:12:29 145.935-145.965
AAUSAT CUBESAT 2 24 Mar 10:14:03 10:18:10 65° 288° (WNW) 10:22:16 437.432
HO-68 24 Mar 10:17:25 10:24:22 56° 299° (WNW) 10:31:19 435.675
SEEDS 24 Mar 10:21:07 10:24:52 33° 295° (WNW) 10:28:38 437.485
CUTE 1.7 + AOD 2 24 Mar 10:22:35 10:26:01 25° 299° (WNW) 10:29:26 437.475
AO-73 24 Mar 10:24:03 10:28:22 78° 103° (ESE) 10:32:34 145.935
DELFI C3 24 Mar 10:24:54 10:28:16 26° 94° (E) 10:31:38 145.870
TIGRISAT 24 Mar 10:26:29 10:31:12 86° 253° (WSW) 10:35:54 435.000
XW-2A 24 Mar 10:28:18 10:29:55 13° 303° (WNW) 10:31:33 145.665 - 145.685
POLYITAN 1 24 Mar 10:34:47 10:37:46 19° 56° (ENE) 10:40:45 437.675
UNISAT 6 24 Mar 10:35:50 10:40:31 69° 258° (WSW) 10:45:11 437.425
QB50P2 24 Mar 10:38:58 10:42:10 21° 58° (ENE) 10:45:23 145.880/145.840
PRISM 24 Mar 10:41:55 10:45:31 30° 264° (W) 10:49:09 437.425
UWE-3 24 Mar 10:42:44 10:46:58 44° 293° (WNW) 10:51:02 435.000/436.395/437.385
AO-7 24 Mar 10:50:47 10:54:16 13° 2° (N) 10:57:45 .
DUCHIFAT 1 24 Mar 10:55:28 10:58:49 23° 59° (ENE) 11:02:11 145.980
NO-84 24 Mar 10:56:28 10:59:21 84° 166° (SSE) 11:02:23 435.350 FM
CUBEBUG 2 24 Mar 11:10:51 11:14:13 21° 303° (WNW) 11:17:30 437.445
FO-29 24 Mar 11:18:09 11:25:54 64° 259° (WSW) 11:33:09 435.910
LO-87 24 Mar 11:18:50 11:20:46 14° 88° (E) 11:22:42 145.935 - 145.965
AIST 2D 24 Mar 11:23:36 11:27:06 61° 72° (ENE) 11:30:37 435.315
BUGSAT 1 24 Mar 11:23:55 11:26:49 18° 56° (NE) 11:29:44 437.445
Oscar 11 24 Mar 11:28:13 11:32:07 34° 296° (WNW) 11:36:00 .
ZACube-1 24 Mar 11:30:32 11:34:12 27° 298° (WNW) 11:37:46 437.345
NANOSAT C BR1 24 Mar 11:38:54 11:43:05 55° 69° (ENE) 11:47:17 145.865
PCSat 24 Mar 11:39:33 11:44:54 64° 124° (SE) 11:50:17 145.827
Gurwin Techsat 1B 24 Mar 11:41:15 11:42:37 11° 41° (NE) 11:44:00 435.225
EO-79 24 Mar 11:41:34 11:45:48 62° 71° (ENE) 11:50:04 145.935-145.965
ESTCUBE 1 24 Mar 11:44:46 11:47:42 17° 88° (E) 11:50:37 437.505/2401.250
Oscar 19 24 Mar 11:47:30 11:50:36 16° 49° (NE) 11:53:41 437.125/150
AAUSAT CUBESAT 2 24 Mar 11:51:22 11:52:52 12° 308° (NW) 11:54:23 437.432
DELFI C3 24 Mar 11:59:28 12:03:12 40° 293° (WNW) 12:06:57 145.870
AO-73 24 Mar 12:01:13 12:04:06 18° 304° (NW) 12:06:55 145.935
TIGRISAT 24 Mar 12:05:58 12:08:36 15° 274° (W) 12:11:12 435.000
HO-68 24 Mar 12:06:02 12:10:45 19° 322° (NW) 12:15:30 435.675
YUBILEINY 24 Mar 12:07:14 12:12:59 19° 319° (NW) 12:18:46 435.215
POLYITAN 1 24 Mar 12:08:47 12:13:05 76° 257° (WSW) 12:17:24 437.675
QB50P2 24 Mar 12:13:19 12:17:35 65° 258° (WSW) 12:21:53 145.880/145.840
UNISAT 6 24 Mar 12:16:32 12:18:06 11° 277° (W) 12:19:40 437.425
DUCHIFAT 1 24 Mar 12:29:59 12:34:11 57° 259° (WSW) 12:38:25 145.980
NO-84 24 Mar 12:33:59 12:36:57 77° 7° (N) 12:40:07 435.350 FM
AO-7 24 Mar 12:38:25 12:44:04 21° 30° (NNE) 12:49:42 .
SPROUT 24 Mar 12:39:08 12:41:54 16° 88° (E) 12:44:38 437.525
